RYR73QL EPMO-EGGP

Flight info

Callsign RYR73QL
Flight time N/A
Altitude 38000
Route LOLSI T174 INDIG L980 SUBIX DCT HLZ DCT RKN L980 TENLI L602 SPY DCT RAVLO Y70 VEGUS
Aircraft B738/M-SDE3FGILRWY/SB1

Departure

Time 2026-04-20 12:59
Airport Warsaw Modlin Airport (EPMO)

Arrival

Time N/A
Airport Liverpool John Lennon Airport (EGGP)
Time Latitude Longitude Altitude Speed Heading
2026-04-20 12:31 52.44719 20.65177 352 ft 0 kts 206°
2026-04-20 12:52 52.44727 20.65183 352 ft 3 kts 206°
2026-04-20 12:52 52.44744 20.65199 352 ft 3 kts 216°
2026-04-20 12:53 52.44759 20.65220 352 ft 3 kts 232°
2026-04-20 12:53 52.44769 20.65247 352 ft 3 kts 249°
2026-04-20 12:53 52.44773 20.65267 352 ft 3 kts 258°
2026-04-20 12:53 52.44775 20.65283 352 ft 1 kts 261°
2026-04-20 12:54 52.44776 20.65290 352 ft 0 kts 261°
2026-04-20 12:55 52.44776 20.65289 352 ft 0 kts 261°
2026-04-20 12:55 52.44775 20.65288 352 ft 1 kts 261°
2026-04-20 12:55 52.44773 20.65259 352 ft 4 kts 261°
2026-04-20 12:56 52.44766 20.65186 352 ft 9 kts 261°
2026-04-20 12:56 52.44758 20.65108 352 ft 12 kts 261°
2026-04-20 12:56 52.44733 20.64840 352 ft 23 kts 261°
2026-04-20 12:56 52.44716 20.64654 352 ft 27 kts 262°
2026-04-20 12:57 52.44688 20.64321 352 ft 31 kts 263°
2026-04-20 12:57 52.44653 20.63946 352 ft 34 kts 261°
2026-04-20 12:57 52.44616 20.63585 352 ft 29 kts 254°
2026-04-20 12:57 52.44685 20.63409 352 ft 25 kts 348°
2026-04-20 12:58 52.44899 20.63404 352 ft 35 kts 29°
2026-04-20 12:58 52.44984 20.63895 352 ft 76 kts 79°
2026-04-20 12:58 52.45093 20.65058 353 ft 136 kts 81°
2026-04-20 12:58 52.45241 20.66767 752 ft 158 kts 82°
2026-04-20 12:59 52.45357 20.68519 1813 ft 144 kts 81°
2026-04-20 12:59 52.45512 20.70151 2617 ft 149 kts 79°
2026-04-20 12:59 52.45699 20.71946 3154 ft 171 kts 81°
2026-04-20 12:59 52.45910 20.74022 3578 ft 197 kts 81°
2026-04-20 13:00 52.46415 20.76200 4147 ft 212 kts 56°
2026-04-20 13:00 52.47606 20.77672 4968 ft 224 kts 27°
2026-04-20 13:00 52.49213 20.78133 5617 ft 247 kts
2026-04-20 13:00 52.50989 20.77927 6365 ft 263 kts 356°
2026-04-20 13:01 52.52815 20.77386 7237 ft 270 kts 353°
2026-04-20 13:01 52.54675 20.76822 8135 ft 274 kts 355°
2026-04-20 13:01 52.56574 20.76315 9065 ft 277 kts 355°
2026-04-20 13:01 52.58486 20.75839 9948 ft 280 kts 359°
2026-04-20 13:02 52.60425 20.76227 10761 ft 281 kts 21°
2026-04-20 13:02 52.62142 20.77913 11250 ft 295 kts 44°
2026-04-20 13:02 52.63331 20.80699 11898 ft 305 kts 66°
2026-04-20 13:02 52.63783 20.84145 12640 ft 314 kts 88°
2026-04-20 13:03 52.63533 20.87743 13423 ft 319 kts 98°
2026-04-20 13:03 52.63380 20.91405 14178 ft 323 kts 87°
2026-04-20 13:03 52.63533 20.95122 14917 ft 328 kts 87°
2026-04-20 13:03 52.63221 20.98862 15613 ft 336 kts 107°
2026-04-20 13:04 52.62120 21.02282 16245 ft 345 kts 127°
2026-04-20 13:04 52.60353 21.05055 16625 ft 360 kts 144°
2026-04-20 13:04 52.58428 21.07022 17158 ft 366 kts 150°
2026-04-20 13:04 52.56299 21.08980 17794 ft 371 kts 150°
2026-04-20 13:05 52.54085 21.11164 18474 ft 375 kts 148°
2026-04-20 13:05 52.51852 21.13468 19116 ft 379 kts 148°
2026-04-20 13:05 52.49612 21.15809 19726 ft 384 kts 148°
2026-04-20 13:05 52.47348 21.18191 20377 ft 388 kts 148°
2026-04-20 13:06 52.45096 21.20571 20963 ft 392 kts 148°
2026-04-20 13:06 52.42621 21.22585 21531 ft 395 kts 163°
2026-04-20 13:06 52.39956 21.23301 22105 ft 395 kts 181°
2026-04-20 13:06 52.37259 21.22702 22663 ft 395 kts 198°
2026-04-20 13:07 52.34779 21.20819 23197 ft 394 kts 216°
2026-04-20 13:07 52.32759 21.17825 23719 ft 394 kts 233°
2026-04-20 13:07 52.31322 21.14029 24227 ft 395 kts 244°
2026-04-20 13:07 52.29910 21.10138 24716 ft 400 kts 236°
2026-04-20 13:08 52.28148 21.06602 25209 ft 404 kts 231°
2026-04-20 13:08 52.26321 21.03088 25680 ft 407 kts 231°
2026-04-20 13:08 52.24503 20.99512 26140 ft 410 kts 233°
2026-04-20 13:08 52.22734 20.95841 26584 ft 413 kts 233°
2026-04-20 13:09 52.20946 20.92153 27019 ft 416 kts 233°
2026-04-20 13:09 52.19132 20.88446 27436 ft 420 kts 232°
2026-04-20 13:09 52.17303 20.84718 27844 ft 422 kts 232°
2026-04-20 13:09 52.15472 20.80959 28238 ft 425 kts 233°
2026-04-20 13:10 52.13632 20.77157 28626 ft 428 kts 233°
2026-04-20 13:10 52.11782 20.73356 28994 ft 431 kts 232°
2026-04-20 13:10 52.09910 20.69524 29355 ft 434 kts 232°
2026-04-20 13:10 52.08025 20.65676 29708 ft 436 kts 232°
2026-04-20 13:11 52.06225 20.61724 30034 ft 438 kts 240°
2026-04-20 13:11 52.05046 20.57152 30342 ft 439 kts 256°
2026-04-20 13:11 52.04673 20.52239 30636 ft 440 kts 271°
2026-04-20 13:11 52.05083 20.47320 30936 ft 441 kts 284°
2026-04-20 13:12 52.05907 20.42504 31322 ft 441 kts 287°
2026-04-20 13:12 52.06748 20.37711 31735 ft 441 kts 286°
2026-04-20 13:12 52.07671 20.32967 32125 ft 440 kts 289°
2026-04-20 13:12 52.08692 20.28289 32509 ft 440 kts 290°
2026-04-20 13:13 52.09725 20.23602 32868 ft 440 kts 290°
2026-04-20 13:13 52.10754 20.18920 33246 ft 440 kts 290°
2026-04-20 13:13 52.11809 20.14108 33614 ft 439 kts 290°
2026-04-20 13:13 52.12833 20.09427 34008 ft 438 kts 290°
2026-04-20 13:14 52.13852 20.04761 34328 ft 439 kts 290°
2026-04-20 13:14 52.14861 20.00132 34655 ft 439 kts 290°
2026-04-20 13:14 52.15893 19.95398 35018 ft 438 kts 290°
2026-04-20 13:14 52.16705 19.90682 35297 ft 439 kts 281°
2026-04-20 13:15 52.17057 19.85748 35605 ft 439 kts 272°
2026-04-20 13:15 52.16962 19.80780 35939 ft 439 kts 266°
2026-04-20 13:15 52.16705 19.75920 36200 ft 440 kts 264°
2026-04-20 13:15 52.16323 19.70965 36487 ft 440 kts 263°
2026-04-20 13:16 52.15893 19.66104 36785 ft 440 kts 262°
2026-04-20 13:16 52.15449 19.61169 37055 ft 440 kts 262°
2026-04-20 13:16 52.15001 19.56237 37313 ft 441 kts 262°
2026-04-20 13:16 52.14545 19.51236 37577 ft 441 kts 262°
2026-04-20 13:17 52.14092 19.46301 37855 ft 440 kts 262°
2026-04-20 13:17 52.13639 19.41367 38026 ft 442 kts 262°
2026-04-20 13:17 52.13185 19.36408 38028 ft 446 kts 262°
2026-04-20 13:18 52.12237 19.26306 38030 ft 454 kts 262°
2026-04-20 13:18 52.11260 19.16105 38029 ft 452 kts 262°
2026-04-20 13:19 52.10282 19.06009 38029 ft 452 kts 262°
2026-04-20 13:19 52.09294 18.95904 38030 ft 453 kts 262°
2026-04-20 13:20 52.08298 18.85798 38031 ft 453 kts 262°
2026-04-20 13:20 52.07313 18.75666 38031 ft 454 kts 262°
2026-04-20 13:21 52.06349 18.65528 38032 ft 453 kts 262°
2026-04-20 13:21 52.05351 18.55341 38033 ft 453 kts 262°
2026-04-20 13:22 52.04368 18.45140 38033 ft 454 kts 262°
2026-04-20 13:22 52.03358 18.35028 38033 ft 454 kts 261°
2026-04-20 13:23 52.02484 18.26547 38039 ft 454 kts 261°
2026-04-20 13:23 52.01430 18.16450 38041 ft 454 kts 261°
2026-04-20 13:24 52.00380 18.06202 38040 ft 454 kts 264°
2026-04-20 13:24 52.00249 17.95994 38042 ft 453 kts 275°
2026-04-20 13:25 52.01157 17.85839 38041 ft 452 kts 281°
2026-04-20 13:25 52.02302 17.75801 38042 ft 452 kts 281°
2026-04-20 13:26 52.03396 17.65746 38042 ft 452 kts 280°
2026-04-20 13:26 52.04442 17.55911 38044 ft 453 kts 280°
2026-04-20 13:27 52.05508 17.45827 38045 ft 453 kts 280°